Regional Weather Roundup
Issued by NWS

Home | Current Version | Previous Version | Text Only | Print | Product List | Glossary On
Versions: 1 2 3 4 5 6 7 8 9 10 11 12 13 14 15 16 17 18 19 20 21 22 23 24 25 26 27 28 29 30 31 32 33 34 35 36 37 38 39 40 41 42 43 44 45 46 47 48 49 50
566
ASUS44 KJAN 230503
RWRMS

MISSISSIPPI HOURLY WEATHER ROUNDUP
NATIONAL WEATHER SERVICE JACKSON MS
1100 PM CST SAT NOV 22 2014

NOTE: "FAIR: INDICATES FEW OR NO CLOUDS BELOW 12,000 FEET WITH NO
SIGNIFICANT WEATHER AND/OR OBSTRUCTIONS TO VISIBILITY.

MSZ001>002-007>008-010>013-018>021-025>028-034>036-230600-
NORTHWEST MISSISSIPPI

CITY           SKY/WX    TMP DP  RH WIND       PRES   REMARKS
CLARKSDALE     FAIR      55  50  82 E13       29.94F
CLEVELAND      FAIR      56  52  86 E8        29.92F
GREENWOOD      MOCLDY    55  49  80 E7        29.95F
GREENVILLE     CLOUDY    57  50  77 SE8       29.91F
GRENADA        MOCLDY    55  50  82 E7        29.97F
OLIVE BRANCH   CLEAR     57  52  82 SE12      29.96F
OXFORD         MOCLDY    57  48  72 SE9       30.00F
TUNICA         PTCLDY    55  50  82 SE9       29.95F
$$

MSZ003>006-009-014>017-022>024-029>033-037>039-230600-
NORTHEAST MISSISSIPPI

CITY           SKY/WX    TMP DP  RH WIND       PRES   REMARKS
COLUMBUS AFB   MIX PCPN  62  53  72 SE15      30.02F
CORINTH        CLOUDY    57  48  72 SE9       30.01F
GOLDN TRIANGLE CLOUDY    61  54  77 SE12      30.01F
STARKVILLE     CLOUDY    61  54  77 SE12G18   30.01F
TUPELO         CLOUDY    61  50  67 S12       30.00F
$$

MSZ040-058-230600-
CENTRAL MISSISSIPPI

CITY           SKY/WX    TMP DP  RH WIND       PRES   REMARKS
JACKSON INTL   PTCLDY    60  55  83 SE12      29.94F
JACKSON HAWKNS CLOUDY    60  55  83 SE13G18   29.94F
MERIDIAN KEY   CLOUDY    60  57  89 E7        30.01F
MERIDIAN NAS   CLOUDY    59  57  93 SE6       30.03F FOG
RAYMOND        CLOUDY    59  55  88 SE10      29.93F
VICKSBURG      PTCLDY    61  54  77 SE14G21   29.90F
$$

MSZ059>079-230600-
SOUTH MISSISSIPPI

CITY           SKY/WX    TMP DP  RH WIND       PRES   REMARKS
BROOKHAVEN     CLOUDY    61  57  88 SE7       29.95F
HATTIESBURG    CLOUDY    62  58  86 E9        29.97F
MCCOMB         CLOUDY    61  58  90 MISG      29.93F
NATCHEZ        CLOUDY    63  57  82 SE13G21   29.89F
PINE BELT      CLOUDY    61  55  82 E7        29.98F
$$

MSZ080>082-230600-
COASTAL MISSISSIPPI

CITY           SKY/WX    TMP DP  RH WIND       PRES   REMARKS
BILOXI         CLOUDY    62  60  91 E12       29.94F
PASCAGOULA     CLOUDY    62  59  90 E10       29.95F
GULFPORT       CLOUDY    62  59  90 E8        29.95F
$$



USA.gov is the U.S. government's official web portal to all federal, state and local government web resources and services.